TimePDT,TemperatureF,Dew PointF,Humidity,Sea Level PressureIn,VisibilityMPH,Wind Direction,Wind SpeedMPH,Gust SpeedMPH,PrecipitationIn,Events,Conditions,WindDirDegrees,DateUTC
12:00 AM,42.8,42.8,100,30.07,0.2,Calm,Calm,-,N/A,Fog,Fog,0,2013-10-23 07:00:00
12:31 AM,42.8,42.8,100,30.07,0.1,Calm,Calm,-,N/A,Fog,Fog,0,2013-10-23 07:31:00
1:00 AM,44.6,44.6,100,30.06,0.1,Calm,Calm,-,N/A,Fog,Fog,0,2013-10-23 08:00:00
2:00 AM,46.4,46.4,100,30.06,0.1,WNW,4.6,-,N/A,Fog,Fog,290,2013-10-23 09:00:00
3:00 AM,46.4,46.4,100,30.06,0.2,West,5.8,-,N/A,Fog,Fog,280,2013-10-23 10:00:00
4:00 AM,44.6,44.6,100,30.06,0.6,West,5.8,-,N/A,,Mostly Cloudy,280,2013-10-23 11:00:00
4:31 AM,42.8,42.8,100,30.06,1.0,West,4.6,-,N/A,,Partly Cloudy,280,2013-10-23 11:31:00
4:42 AM,42.8,42.8,100,30.06,30.0,West,5.8,-,N/A,,Clear,280,2013-10-23 11:42:00
5:00 AM,44,44,99,30.06,28,West,4.6,,,,Mist,270,2013-10-23 12:00:00
5:00 AM,44.6,44.6,100,30.05,30.0,West,4.6,-,N/A,,Clear,280,2013-10-23 12:00:00
5:30 AM,42.8,42.8,100,30.05,0.6,WSW,2.3,-,N/A,,Scattered Clouds,250,2013-10-23 12:30:00
5:40 AM,41.0,41.0,100,30.05,0.5,WSW,5.8,-,N/A,Fog,Fog,240,2013-10-23 12:40:00
6:00 AM,42.8,42.8,100,30.05,0.5,WSW,4.6,-,N/A,Fog,Fog,250,2013-10-23 13:00:00
6:08 AM,41.0,41.0,100,30.05,0.6,WSW,2.3,-,N/A,,Partly Cloudy,240,2013-10-23 13:08:00
7:00 AM,41.0,41.0,100,30.05,10.0,West,3.5,-,N/A,,Partly Cloudy,260,2013-10-23 14:00:00
8:00 AM,42.8,42.8,100,30.06,6.0,WNW,4.6,-,N/A,,Partly Cloudy,300,2013-10-23 15:00:00
8:23 AM,41.0,41.0,100,30.06,0.5,Calm,Calm,-,N/A,Fog,Fog,0,2013-10-23 15:23:00
8:45 AM,42.8,42.8,100,30.07,0.6,Calm,Calm,-,N/A,,Partly Cloudy,0,2013-10-23 15:45:00
9:00 AM,44.6,44.6,100,30.07,12.0,West,3.5,-,N/A,,Partly Cloudy,280,2013-10-23 16:00:00
10:00 AM,50.0,50.0,100,30.07,30.0,West,2.3,-,N/A,Fog,Clear,270,2013-10-23 17:00:00
11:00 AM,53,50,87,30.08,28,West,3.5,,,,Partly Cloudy,280,2013-10-23 18:00:00
11:00 AM,53.6,50.0,88,30.07,30.0,WNW,2.3,-,N/A,,Partly Cloudy,300,2013-10-23 18:00:00
12:00 PM,55.4,50.0,82,30.07,30.0,East,4.6,-,N/A,,Clear,100,2013-10-23 19:00:00
1:00 PM,57.2,51.8,82,30.06,30.0,East,3.5,-,N/A,,Clear,80,2013-10-23 20:00:00
2:00 PM,55.4,50.0,82,30.04,30.0,East,5.8,-,N/A,,Clear,90,2013-10-23 21:00:00
3:00 PM,59.0,51.8,77,30.02,30.0,East,4.6,-,N/A,,Clear,90,2013-10-23 22:00:00
4:00 PM,55.4,50.0,82,30.02,30.0,East,3.5,-,N/A,,Clear,80,2013-10-23 23:00:00
5:00 PM,56,50,74,30.01,28,East,3.5,,,,,80,2013-10-24 00:00:00
5:00 PM,55.4,50.0,82,30.01,30.0,ENE,2.3,-,N/A,,Clear,70,2013-10-24 00:00:00
6:00 PM,53.6,48.2,82,30.00,30.0,East,3.5,-,N/A,,Clear,80,2013-10-24 01:00:00
7:00 PM,48.2,48.2,100,30.01,30.0,ESE,3.5,-,N/A,,Clear,110,2013-10-24 02:00:00
8:00 PM,44.6,44.6,100,30.01,30.0,Calm,Calm,-,N/A,,Clear,0,2013-10-24 03:00:00
9:00 PM,44.6,42.8,93,30.02,30.0,Calm,Calm,-,N/A,,Clear,0,2013-10-24 04:00:00
9:39 PM,44.6,42.8,93,30.02,15.0,Calm,Calm,-,N/A,,Partly Cloudy,0,2013-10-24 04:39:00
10:00 PM,44.6,44.6,100,30.03,15.0,WNW,2.3,-,N/A,,Partly Cloudy,300,2013-10-24 05:00:00
11:00 PM,47,47,100,30.04,12,WNW,3.5,,,,Scattered Clouds,300,2013-10-24 06:00:00
11:00 PM,46.4,46.4,100,30.03,12.0,WNW,3.5,-,N/A,,Partly Cloudy,290,2013-10-24 06:00:00